FW1003 Weather Reports


Display with metric or nautical units.
time (UTC)temp
F
wind
direction
speed
MPH
gust
MPH
rain 1hr
in
rain 24hr
in
rain mn
in
humidity
%
barometer
mb
20260503031602 69 360 1.0 6.0 0.00 0.00 0.00 67 1005.7
20260503030049 69 360 4.0 8.0 0.00 0.00 0.00 67 1005.8
20260503024542 70 22 3.0 10.0 0.00 0.00 0.00 69 1006.1
20260503023041 70 360 5.0 11.0 0.00 0.00 0.00 69 1006.4
20260503021540 70 289 6.0 14.0 0.00 0.00 0.00 69 1006.5
20260503020038 70 344 10.0 20.0 0.00 0.00 0.00 70 1006.7
20260503014544 70 360 11.0 20.0 0.00 0.00 0.00 70 1007.1
20260503013037 70 302 8.0 23.0 0.00 0.00 0.00 71 1008.3
20260503011534 70 288 9.0 15.0 0.00 0.00 0.00 72 1008.2
20260503010035 70 360 5.0 12.0 0.00 0.00 0.00 73 1008.9
20260503004530 69 360 5.0 16.0 0.00 0.00 0.00 75 1008.4
20260503003026 66 350 0.0 3.0 0.00 0.00 0.00 76 1009.2
20260503001523 65 360 0.0 2.0 0.00 0.00 0.00 76 1007.7
20260503000021 64 297 0.0 0.0 0.00 0.00 0.00 75 1007.5
20260502234528 64 297 0.0 0.0 0.00 0.00 0.00 75 1007.2
20260502233024 64 297 0.0 0.0 0.00 0.00 0.00 75 1007.3
20260502231523 64 298 0.0 0.0 0.00 0.00 0.00 75 1007.2
20260502230024 64 298 0.0 0.0 0.00 0.00 0.00 75 1007.3
20260502224517 64 298 0.0 0.0 0.00 0.00 0.00 75 1007.4
20260502223018 65 297 0.0 0.0 0.00 0.00 0.00 75 1007.6
20260502221515 65 297 0.0 0.0 0.00 0.00 0.00 75 1007.8
20260502220012 64 360 0.0 0.0 0.00 0.00 0.00 75 1008.0
20260502214510 64 297 0.0 0.0 0.00 0.00 0.00 74 1008.4
20260502213010 64 297 0.0 0.0 0.00 0.00 0.00 73 1008.2
20260502211510 64 297 0.0 0.0 0.00 0.00 0.00 73 1008.5
20260502210005 64 297 0.0 0.0 0.00 0.00 0.00 72 1008.8
20260502204503 64 360 0.0 0.0 0.00 0.00 0.00 71 1009.1
20260502203001 64 360 0.0 0.0 0.00 0.00 0.00 70 1009.3
20260502201659 64 298 0.0 0.0 0.00 0.00 0.00 69 1009.5
20260502200100 65 297 0.0 2.0 0.00 0.00 0.00 69 1009.8
20260502194557 66 298 0.0 2.0 0.00 0.00 0.00 67 1009.8
20260502193105 66 298 1.0 4.0 0.00 0.00 0.00 68 1009.6
20260502191600 66 296 0.0 3.0 0.00 0.00 0.00 63 1010.0
20260502190107 68 297 0.0 0.0 0.00 0.00 0.00 61 1010.4
20260502184559 68 296 0.0 2.0 0.00 0.00 0.00 61 1010.6
20260502183109 68 360 0.0 2.0 0.00 0.00 0.00 62 1010.6
20260502181552 69 360 0.0 2.0 0.00 0.00 0.00 61 1010.9
20260502170150 71 360 0.0 2.0 0.00 0.00 0.00 63 1010.8
20260502163053 72 360 2.0 6.0 0.00 0.00 0.00 62 1010.6
20260502161552 72 9 3.0 6.0 0.00 0.00 0.00 61 1010.7
20260502151541 74 351 6.0 10.0 0.00 0.00 0.00 58 1011.1
20260502123030 74 304 3.0 10.0 0.00 0.00 0.00 61 1012.9
20260502121522 75 255 3.0 11.0 0.00 0.00 0.00 59 1013.2
20260502114517 74 9 5.0 10.0 0.00 0.00 0.00 59 1013.7
20260502113017 74 323 6.0 14.0 0.00 0.00 0.00 59 1013.7
20260502111518 74 360 6.0 15.0 0.00 0.00 0.00 58 1014.0
20260502110014 74 319 7.0 18.0 0.00 0.00 0.00 57 1014.2
20260502104611 77 294 1.0 13.0 0.00 0.00 0.00 55 1014.4
20260502103010 78 282 2.0 9.0 0.00 0.00 0.00 54 1014.2
20260502101510 78 333 2.0 9.0 0.00 0.00 0.00 53 1013.9
20260502091505 81 298 1.0 5.0 0.00 0.00 0.00 46 1014.0
20260502070038 73 360 4.0 8.0 0.00 0.00 0.00 52 1015.1
20260502064535 73 126 4.0 8.0 0.00 0.00 0.00 54 1015.3
20260502063031 72 360 2.0 8.0 0.00 0.00 0.00 56 1015.5
20260502061529 71 178 4.0 8.0 0.00 0.00 0.00 57 1015.4
20260502060023 71 360 2.0 7.0 0.00 0.00 0.00 60 1015.5
20260502054621 70 360 3.0 8.0 0.00 0.00 0.00 60 1015.6
20260502053018 70 360 3.0 8.0 0.00 0.00 0.00 61 1015.5
20260502051514 68 120 4.0 8.0 0.00 0.00 0.00 64 1015.4
20260502050009 67 138 3.0 8.0 0.00 0.00 0.00 68 1015.3
20260502044505 65 145 2.0 6.0 0.00 0.00 0.00 73 1015.1
20260502043001 63 50 0.0 2.0 0.00 0.00 0.00 76 1015.1
20260502041634 61 50 0.0 1.0 0.00 0.00 0.00 76 1014.8
20260502040056 61 50 1.0 2.0 0.00 0.00 0.00 76 1015.2
20260502034553 59 49 0.0 0.0 0.00 0.00 0.00 77 1015.3
20260502033102 57 50 0.0 2.0 0.00 0.00 0.00 76 1015.2